Location: *
(47.6569°N, 7.4256°E)
Time: 08:34:56
(UTC+00:00)

RESURS DK-1 - Pass Details

Date: 14 December 2019
Orbit: 554 x 564 km, 69.9° (Epoch: 19 January)

Event Time Altitude Azimuth Distance (km) Brightness Sun altitude
Rises 16:19:42 0° 233° (SW) 2,727 8.1 -6.8°
Reaches altitude 10° 16:22:04 10° 244° (WSW) 1,838 6.8 -7.1°
Maximum altitude 16:25:46 32° 308° (NW) 981 3.9 -7.7°
Drops below altitude 10° 16:29:30 10° 12° (NNE) 1,853 4.7 -8.2°
Enters shadow 16:31:10 - 21° (NNE) 2,476 5.2 -8.5°
